EW1675 Weather Reports


time (UTC)temp
F
wind
direction
speed
knots
gust
knots
rain 1hr
in
rain 24hr
in
rain mn
in
humidity
%
barometer
mb
20260902202022 78 213 0.0 0.9 0.00 0.00 0.00 83 1018.0
20260902201023 78 217 0.0 1.7 0.00 0.00 0.00 83 1018.1
20260902200002 78 180 0.0 3.5 0.00 0.00 0.00 83 1018.6
20260902195002 79 163 0.0 3.5 0.00 0.00 0.00 82 1018.7
20260902194002 79 163 0.0 1.7 0.00 0.00 0.00 82 1018.8
20260902193002 80 164 0.9 3.5 0.00 0.00 0.00 80 1018.6
20260902192003 80 286 0.9 4.3 0.00 0.00 0.00 79 1018.3
20260902191002 81 336 0.9 2.6 0.00 0.00 0.00 76 1018.5
20260902190002 82 344 0.9 3.5 0.00 0.00 0.00 76 1018.8
20260902185002 83 147 0.9 2.6 0.00 0.00 0.00 73 1017.9
20260902184044 84 112 0.9 7.0 0.00 0.00 0.00 71 1018.8
20260902183023 86 105 2.6 7.8 0.00 0.00 0.00 66 1018.2
20260902182002 90 115 2.6 7.8 0.00 0.00 0.00 62 1018.7
20260902181002 92 121 0.9 5.2 0.00 0.00 0.00 65 1018.1
20260902180004 94 103 0.9 3.5 0.00 0.00 0.00 65 1018.1
20260902175023 94 320 0.9 2.6 0.00 0.00 0.00 63 1018.4
20260902174002 94 147 0.9 4.3 0.00 0.00 0.00 66 1018.4
20260902173002 94 137 1.7 5.2 0.00 0.00 0.00 65 1018.6
20260902172023 94 142 0.9 2.6 0.00 0.00 0.00 64 1018.6
20260902171002 94 150 1.7 5.2 0.00 0.00 0.00 66 1018.6
20260902170002 93 150 0.9 4.3 0.00 0.00 0.00 67 1018.5
20260902165002 93 170 0.9 4.3 0.00 0.00 0.00 67 1018.6
20260902164002 92 105 0.9 3.5 0.00 0.00 0.00 66 1018.7
20260902163044 92 127 0.9 3.5 0.00 0.00 0.00 66 1018.6
20260902162023 92 173 0.9 3.5 0.00 0.00 0.00 68 1018.6
20260902161002 92 128 0.9 5.2 0.00 0.00 0.00 68 1018.6
20260902160023 91 247 0.9 3.5 0.00 0.00 0.00 68 1018.7
20260902155002 91 154 0.9 3.5 0.00 0.00 0.00 68 1018.5
20260902154044 91 122 0.9 4.3 0.00 0.00 0.00 68 1018.6
20260902153023 90 159 0.9 5.2 0.00 0.00 0.00 69 1018.5
20260902152044 90 113 0.9 2.6 0.00 0.00 0.00 69 1018.6
20260902151002 89 103 0.9 2.6 0.00 0.00 0.00 70 1018.6
20260902150002 89 117 0.0 0.9 0.00 0.00 0.00 70 1018.7
20260902145003 88 11 0.9 1.7 0.00 0.00 0.00 71 1018.7
20260902144023 88 45 0.9 2.6 0.00 0.00 0.00 71 1018.7
20260902143002 87 148 0.0 1.7 0.00 0.00 0.00 74 1018.6
20260902142023 87 136 0.9 2.6 0.00 0.00 0.00 73 1018.5
20260902141003 86 123 0.9 2.6 0.00 0.00 0.00 77 1018.7
20260902140002 85 121 0.9 3.5 0.00 0.00 0.00 76 1018.8
20260902135002 84 146 0.9 1.7 0.00 0.00 0.00 78 1018.5
20260902134045 83 143 0.0 1.7 0.00 0.00 0.00 79 1018.7
20260902133002 82 102 0.9 2.6 0.00 0.00 0.00 80 1018.6
20260902132044 81 86 0.9 4.3 0.00 0.00 0.00 82 1018.7
20260902131002 80 126 0.0 3.5 0.00 0.00 0.00 84 1018.5
20260902130024 78 149 0.0 0.9 0.00 0.00 0.00 88 1018.5
20260902125002 77 0 0.0 0.0 0.00 0.00 0.00 89 1018.5
20260902124045 76 149 0.0 0.9 0.00 0.00 0.00 90 1018.6
20260902123045 75 149 0.0 0.9 0.00 0.00 0.00 92 1018.4
20260902122024 75 149 0.0 0.9 0.00 0.00 0.00 93 1018.3
20260902121003 75 150 0.0 0.9 0.00 0.00 0.00 93 1018.6
20260902120024 74 0 0.0 0.0 0.00 0.00 0.00 92 1018.5
20260902115024 74 0 0.0 0.0 0.00 0.00 0.00 92 1018.3
20260902114024 74 0 0.0 0.0 0.00 0.00 0.00 92 1018.2
20260902113003 74 0 0.0 0.0 0.00 0.00 0.00 91 1018.2
20260902112024 74 0 0.0 0.0 0.00 0.00 0.00 90 1018.1
20260902111003 74 0 0.0 0.0 0.00 0.00 0.00 90 1018.3
20260902110003 74 0 0.0 0.0 0.00 0.00 0.00 90 1018.3
20260902105003 74 0 0.0 0.0 0.00 0.00 0.00 90 1018.2
20260902104003 74 0 0.0 0.0 0.00 0.00 0.00 89 1018.3
20260902103003 74 0 0.0 0.0 0.00 0.00 0.00 89 1018.2
20260902102003 75 0 0.0 0.0 0.00 0.00 0.00 89 1018.1
20260902101003 75 0 0.0 0.0 0.00 0.00 0.00 88 1018.0
20260902100003 75 0 0.0 0.0 0.00 0.00 0.00 88 1017.8
20260902095002 75 0 0.0 0.0 0.00 0.00 0.00 88 1017.7
20260902094002 75 0 0.0 0.0 0.00 0.00 0.00 88 1017.7
20260902093023 75 0 0.0 0.0 0.00 0.00 0.00 88 1017.8
20260902092105 75 0 0.0 0.0 0.00 0.00 0.00 87 1017.8
20260902091105 76 0 0.0 0.0 0.00 0.00 0.00 87 1017.8
20260902090023 76 0 0.0 0.0 0.00 0.00 0.00 87 1017.7
20260902085023 76 0 0.0 0.0 0.00 0.00 0.00 87 1017.7
20260902084023 76 0 0.0 0.0 0.00 0.00 0.00 87 1017.7
20260902083002 76 0 0.0 0.0 0.00 0.00 0.00 86 1017.7
20260902082002 76 0 0.0 0.0 0.00 0.00 0.00 86 1017.7
20260902081023 76 0 0.0 0.0 0.00 0.00 0.00 85 1017.6
20260902080023 77 0 0.0 0.0 0.00 0.00 0.00 84 1017.5
20260902075044 77 0 0.0 0.0 0.00 0.00 0.00 83 1017.6
20260902074044 77 0 0.0 0.0 0.00 0.00 0.00 82 1017.4
20260902073023 78 355 0.0 0.9 0.00 0.00 0.00 82 1017.4
20260902072023 78 0 0.0 0.0 0.00 0.00 0.00 81 1017.3
20260902071002 78 0 0.0 0.0 0.00 0.00 0.00 80 1017.2
20260902070044 79 0 0.0 0.0 0.00 0.00 0.00 80 1017.1
20260902065002 79 0 0.0 0.0 0.00 0.00 0.00 79 1017.2
20260902064105 79 355 0.0 1.7 0.00 0.00 0.00 79 1017.1
20260902063044 79 355 0.9 2.6 0.00 0.00 0.00 79 1017.2
20260902062023 79 338 0.9 3.5 0.00 0.00 0.00 79 1017.1
20260902061002 78 311 0.9 2.6 0.00 0.00 0.00 79 1017.1
20260902060023 78 250 0.0 1.7 0.00 0.00 0.00 80 1017.1
20260902055002 78 266 0.0 0.9 0.00 0.00 0.00 81 1017.2
20260902054106 78 16 0.0 2.6 0.00 0.00 0.00 81 1017.2
20260902053002 78 0 0.0 0.0 0.00 0.00 0.00 83 1017.0
20260902052002 79 0 0.0 0.0 0.00 0.00 0.00 82 1017.0
20260902051002 79 117 0.0 0.9 0.00 0.00 0.00 82 1016.9
20260902050003 79 117 0.0 0.9 0.00 0.00 0.00 82 1017.0
20260902045105 80 117 0.0 1.7 0.00 0.00 0.00 82 1016.8
20260902044002 80 117 0.0 1.7 0.00 0.00 0.00 80 1016.6
20260902043023 80 0 0.0 0.0 0.00 0.00 0.00 78 1016.6
20260902042023 80 117 0.0 0.9 0.00 0.00 0.00 78 1016.5
20260902041105 80 117 0.0 0.9 0.00 0.00 0.00 79 1016.5
20260902040024 80 117 0.0 1.7 0.00 0.00 0.00 80 1016.5
20260902035023 80 119 0.0 1.7 0.00 0.00 0.00 80 1016.4
20260902034002 80 0 0.0 0.0 0.00 0.00 0.00 81 1016.3
20260902033002 80 0 0.0 0.0 0.00 0.00 0.00 81 1016.1
20260902032044 80 0 0.0 0.0 0.00 0.00 0.00 81 1015.9
20260902031023 80 0 0.0 0.0 0.00 0.00 0.00 81 1015.8
20260902030002 80 0 0.0 0.0 0.00 0.00 0.00 82 1015.8
20260902025002 80 0 0.0 0.0 0.00 0.00 0.00 82 1015.8
20260902024023 81 0 0.0 0.0 0.00 0.00 0.00 82 1015.9
20260902023002 81 0 0.0 0.0 0.00 0.00 0.00 83 1016.1
20260902022045 82 0 0.0 0.0 0.00 0.00 0.00 83 1016.2
20260902021045 82 0 0.0 0.0 0.00 0.00 0.00 82 1016.1
20260902020003 82 0 0.0 0.0 0.00 0.00 0.00 82 1015.9
20260902015105 82 0 0.0 0.0 0.00 0.00 0.00 82 1015.7
20260902014002 83 0 0.0 0.0 0.00 0.00 0.00 81 1015.8
20260902013045 83 0 0.0 0.0 0.00 0.00 0.00 80 1015.8
20260902012024 83 0 0.0 0.0 0.00 0.00 0.00 79 1015.6
20260902011003 84 0 0.0 0.0 0.00 0.00 0.00 78 1015.4
20260902010002 84 0 0.0 0.0 0.00 0.00 0.00 78 1015.3
20260902005023 85 0 0.0 0.0 0.00 0.00 0.00 77 1015.2
20260902004002 85 0 0.0 0.0 0.00 0.00 0.00 77 1014.8
20260902003003 86 0 0.0 0.0 0.00 0.00 0.00 75 1014.8
20260902002003 87 0 0.0 0.0 0.00 0.00 0.00 74 1014.7
20260902001024 87 0 0.0 0.0 0.00 0.00 0.00 73 1014.5
20260902000003 88 0 0.0 0.0 0.00 0.00 0.00 71 1014.3
20260901235003 89 0 0.0 0.0 0.00 0.00 0.00 69 1014.3
20260901234003 89 0 0.0 0.0 0.00 0.00 0.00 67 1014.3
20260901233003 90 0 0.0 0.0 0.00 0.00 0.00 67 1014.4
20260901232003 90 0 0.0 0.0 0.00 0.00 0.00 66 1014.6
20260901231003 90 0 0.0 0.0 0.00 0.00 0.00 64 1014.6
20260901230024 90 130 0.0 0.9 0.00 0.00 0.00 64 1014.7
20260901224001 91 358 0.0 2.6 0.00 0.00 0.00 64 1014.6
20260901223044 91 154 0.0 1.7 0.00 0.00 0.00 64 1014.7
20260901222022 91 154 0.0 0.9 0.00 0.00 0.00 64 1014.8
20260901221002 91 154 0.0 1.7 0.00 0.00 0.00 63 1014.9
20260901220043 92 154 0.0 0.9 0.00 0.00 0.00 63 1014.8
20260901215002 92 154 0.0 1.7 0.00 0.00 0.00 62 1015.0
20260901214044 92 155 0.0 1.7 0.00 0.00 0.00 60 1015.0
20260901213023 93 155 0.0 1.7 0.00 0.00 0.00 59 1014.9
20260901212023 93 155 0.0 1.7 0.00 0.00 0.00 58 1014.9
20260901211002 94 145 0.9 4.3 0.00 0.00 0.00 58 1014.9
20260901210022 94 33 0.9 3.5 0.00 0.00 0.00 58 1014.8
20260901205023 94 76 0.9 2.6 0.00 0.00 0.00 57 1014.9
20260901204023 94 163 0.9 2.6 0.00 0.00 0.00 57 1014.9
20260901203044 95 147 0.9 3.5 0.00 0.00 0.00 58 1014.9